Wind_Speed
25 24 22 23 24 25 25 25 26 26 27 28 28 27 29 29 27 26 26 25 25 25 26 26 26 27 28 28 27 28 28 29 29 29 30 29 29 29 28 29 29 29 29
24 22 21 22 24 24 25 26 26 28 29 29 28 28 28 29 26 23 23 23 24 24 25 25 27 27 27 27 28 28 28 28 29 29 29 30 29 29 29 29 29 29 29
23 22 21 22 23 24 25 25 27 27 28 28 28 27 27 26 25 23 23 23 24 24 23 25 26 26 26 26 27 27 27 28 28 28 28 28 29 29 29 30 30 30 30
22 23 23 23 24 25 26 27 27 27 27 27 28 28 26 25 25 23 23 23 23 24 24 25 25 26 26 26 25 26 26 27 27 27 28 28 29 28 28 29 30 31 31
24 23 23 23 24 26 27 27 27 27 27 27 27 26 25 25 25 24 23 22 22 23 24 24 24 25 25 25 24 25 26 26 26 26 27 28 28 28 28 29 30 31 32
22 22 23 24 25 26 27 27 28 27 26 26 26 25 25 24 24 23 22 21 21 22 23 23 23 24 24 24 24 24 25 25 25 25 26 27 28 28 29 29 30 31 31
22 23 24 24 24 25 26 26 26 26 26 25 25 24 25 24 23 22 21 21 20 20 20 21 22 23 23 23 23 24 24 25 25 25 25 26 27 28 28 29 30 31 32
23 24 25 24 24 24 24 25 26 25 24 24 24 24 22 21 21 21 21 20 19 19 20 20 21 23 23 23 23 23 24 25 25 25 25 26 27 28 28 29 30 30 31
22 23 24 24 24 24 25 25 24 23 23 23 23 22 20 20 19 20 21 21 20 20 20 21 22 23 23 23 23 24 25 25 25 25 26 27 27 28 28 29 30 31 31
22 23 23 24 23 24 25 24 23 23 22 22 21 21 20 19 19 20 20 21 21 20 21 21 21 22 22 23 23 24 25 25 25 25 26 27 27 27 28 29 29 30 31
22 23 24 23 23 23 24 23 22 21 21 20 19 19 18 17 18 18 19 19 19 19 19 20 20 21 22 22 23 24 24 25 25 24 25 26 26 27 27 28 28 28 29
24 23 23 22 21 22 22 21 20 19 18 18 17 17 17 18 17 17 18 17 17 18 19 20 21 22 23 23 23 23 24 24 24 24 24 24 25 25 26 26 27 27 27
22 22 21 21 20 20 20 19 19 18 17 16 15 16 17 18 17 17 16 16 16 17 19 20 20 21 22 22 22 22 23 23 23 23 24 24 24 24 25 25 26 25 26
21 20 20 19 20 20 18 18 17 16 15 14 14 15 17 18 18 17 15 15 15 17 19 20 20 20 21 21 21 22 23 23 23 23 24 24 23 23 23 24 24 24 24
19 19 18 18 19 18 17 16 15 14 14 14 14 15 16 17 17 16 15 15 16 17 18 19 19 19 20 21 21 22 22 22 23 23 23 23 23 24 24 24 24 23 24
19 18 17 17 18 17 15 14 13 13 13 13 14 15 15 15 16 16 16 16 16 17 18 18 19 20 20 21 21 21 22 23 23 23 23 23 23 23 23 23 23 24 24
19 18 17 17 17 15 14 13 13 13 13 14 14 14 14 15 16 16 15 15 16 17 17 17 19 20 21 21 21 22 22 22 23 23 22 22 22 23 23 23 23 24 24
18 18 17 17 16 14 13 13 14 13 14 14 14 14 14 15 15 14 14 15 16 17 17 17 18 20 20 21 22 22 23 23 23 23 23 22 23 23 23 23 23 23 23
18 17 17 16 16 14 13 13 14 14 14 14 14 15 14 15 15 14 14 15 16 17 17 18 19 20 22 22 23 23 23 24 24 24 24 23 23 24 24 24 24 23 23
17 17 16 15 15 14 13 14 14 13 13 14 14 14 14 14 15 15 15 16 17 18 18 19 20 21 23 24 24 24 25 25 25 25 24 24 25 25 25 25 24 24 23
16 15 15 15 15 14 13 13 13 13 13 14 14 14 15 15 15 15 16 17 18 19 19 20 22 23 25 26 26 26 26 25 25 25 25 25 26 26 26 26 25 24 23
15 14 14 14 14 15 14 13 13 13 14 14 14 14 14 15 15 16 17 18 19 19 20 21 22 24 25 26 26 26 26 25 25 25 26 27 27 27 27 26 26 25 24
13 13 13 14 14 15 13 13 13 13 14 14 14 14 15 16 16 17 18 19 19 20 21 22 23 24 25 26 26 26 25 25 26 27 27 28 28 27 27 26 26 25 23
13 13 13 13 14 14 13 13 13 13 14 13 14 14 15 16 17 18 19 20 20 21 22 23 24 24 25 25 26 26 26 26 27 27 27 27 27 26 26 26 25 24 23
12 12 12 13 13 13 13 13 13 13 13 13 14 15 16 17 18 19 20 21 21 21 22 23 24 24 24 25 26 26 26 26 27 27 27 27 26 25 25 25 24 24 23
12 13 13 13 13 13 12 12 13 13 13 14 14 16 16 18 19 19 20 21 21 21 22 23 23 24 25 26 26 27 27 28 28 28 28 28 27 26 25 25 24 23 23
Wind_Direction
296 295 295 296 298 298 297 297 298 297 297 297 298 299 300 299 297 297 300 297 291 289 288 287 286 285 284 283 282 281 280 279 277 276 275 273 273 273 272 270 268 266 265
293 292 294 296 297 298 297 298 298 299 299 298 298 298 300 299 298 299 300 298 293 290 288 287 285 285 284 284 283 282 282 280 279 277 275 274 273 272 272 270 268 267 266
293 293 293 292 294 295 295 298 298 298 299 299 299 299 300 300 300 298 297 295 294 292 290 289 289 287 287 285 285 284 284 282 281 279 277 275 274 272 271 270 269 268 267
294 294 295 296 296 297 296 297 300 300 298 298 301 302 302 301 299 296 296 295 295 293 291 289 289 288 288 286 288 288 286 285 282 280 278 277 276 273 270 270 270 269 268
294 294 294 295 297 299 299 299 298 298 298 298 301 303 302 302 300 295 294 293 293 294 292 292 291 289 288 288 289 289 289 289 286 283 280 279 277 274 271 270 270 270 269
295 295 296 296 297 299 300 300 299 299 299 299 300 302 302 301 300 297 296 296 294 295 295 294 293 291 291 292 291 290 291 292 291 287 283 281 280 277 274 272 270 269 267
296 296 300 300 300 302 302 301 300 301 299 298 298 298 299 298 297 299 299 297 297 298 299 300 299 296 296 295 293 292 291 292 292 290 288 285 283 281 277 274 272 269 267
302 300 303 303 303 303 304 304 302 301 301 300 298 298 299 297 297 298 300 301 302 303 303 302 302 299 298 298 296 294 293 294 293 293 290 288 285 284 280 276 273 271 269
304 303 304 304 306 307 306 306 304 302 301 301 300 300 301 300 299 301 302 304 306 305 304 304 304 303 301 300 298 296 296 295 294 293 292 290 287 286 284 280 277 274 272
306 306 307 307 308 309 310 309 308 306 303 302 302 302 301 304 304 304 304 306 307 306 305 305 305 305 306 303 300 300 298 298 296 295 294 294 291 288 286 283 281 279 276
310 310 311 312 312 313 314 313 311 308 306 305 304 305 308 308 307 307 306 308 309 309 309 308 308 306 306 306 304 302 300 300 298 297 296 296 293 290 287 286 284 281 279
313 313 312 313 313 314 316 317 315 312 309 307 306 307 310 312 312 311 309 310 309 310 311 311 310 309 309 309 306 306 305 304 301 299 299 298 296 293 290 288 286 283 281
317 316 315 314 316 317 317 318 317 316 313 310 308 309 311 315 315 313 313 314 313 315 317 316 314 313 314 313 310 309 309 307 305 303 302 302 298 296 293 290 289 287 283
322 320 319 319 320 320 319 319 318 319 319 316 314 314 314 316 319 317 317 317 316 317 319 319 318 318 318 317 315 312 312 310 309 308 307 305 301 300 296 293 292 290 286
326 328 327 324 324 323 321 323 321 322 323 320 320 319 320 322 322 321 319 320 320 319 320 321 321 321 322 321 319 317 316 314 312 312 312 310 306 305 303 300 297 294 290
327 328 329 328 327 327 326 327 328 327 326 325 324 324 325 327 326 323 322 321 323 323 324 324 324 324 324 324 322 321 320 317 316 314 313 312 312 311 310 307 303 300 295
326 327 328 329 330 328 330 335 336 335 333 330 328 327 327 327 328 326 326 325 325 327 327 326 326 327 328 327 325 324 323 320 319 318 316 315 315 315 314 311 307 303 300
328 329 331 330 331 330 330 334 336 334 333 333 333 330 329 329 330 330 330 330 331 332 332 331 332 332 331 331 329 327 324 322 323 322 322 320 317 316 315 313 312 308 304
329 331 333 335 334 332 331 334 334 333 335 336 337 337 335 336 334 332 330 333 336 338 338 335 333 334 335 334 332 329 327 325 324 324 324 322 320 319 316 314 313 310 307
330 332 334 337 337 336 333 333 335 338 339 338 338 340 339 337 336 336 336 336 338 340 339 337 335 335 336 335 333 330 328 327 326 325 323 321 321 321 319 316 312 310 307
329 333 338 340 340 339 336 337 339 342 343 340 339 339 339 338 339 340 338 337 339 340 338 338 337 336 336 335 333 331 330 329 328 325 323 321 320 319 319 317 314 311 308
327 330 335 338 339 340 339 341 344 345 346 344 343 343 344 344 344 342 340 339 339 339 338 338 338 338 338 338 336 334 333 331 329 328 326 324 322 320 320 318 316 314 310
327 328 331 334 336 337 338 339 342 344 344 345 345 346 346 346 345 342 340 339 339 338 338 338 338 338 339 339 338 338 336 335 332 330 329 329 328 326 324 322 319 317 315
323 325 330 334 335 335 337 341 342 342 343 345 345 345 345 346 344 342 340 339 339 339 339 338 339 341 341 341 341 341 340 340 338 337 337 336 333 331 330 328 326 323 320
323 324 328 332 334 335 336 338 339 342 342 343 344 344 345 344 343 341 340 340 340 340 340 341 342 344 344 345 345 345 344 343 343 343 342 340 338 335 334 333 332 330 327
320 322 326 329 330 331 332 333 335 338 339 340 342 343 344 343 343 343 342 342 342 342 343 344 345 347 347 347 347 347 345 345 345 344 342 342 341 340 339 338 336 334 331
Height
5829 5826 5824 5822 5820 5818 5816 5813 5810 5808 5806 5803 5800 5797 5795 5792 5789 5787 5785 5783 5781 5780 5779 5777 5775 5774 5773 5772 5771 5769 5768 5767 5766 5765 5764 5764 5763 5763 5762 5762 5762 5762 5762
5823 5821 5819 5817 5815 5813 5811 5808 5805 5803 5800 5797 5794 5791 5789 5786 5783 5781 5779 5777 5775 5774 5772 5771 5769 5768 5767 5765 5764 5762 5760 5759 5758 5757 5756 5756 5756 5755 5754 5754 5754 5754 5754
5819 5816 5814 5812 5810 5808 5806 5803 5800 5797 5794 5791 5788 5786 5783 5781 5778 5775 5773 5771 5769 5767 5766 5764 5763 5761 5759 5758 5757 5755 5753 5751 5750 5749 5748 5747 5747 5747 5747 5746 5746 5745 5745
5813 5811 5809 5807 5805 5803 5800 5797 5794 5791 5788 5785 5783 5780 5777 5775 5772 5769 5768 5765 5763 5761 5760 5758 5756 5754 5753 5751 5750 5748 5746 5744 5742 5741 5740 5739 5738 5738 5738 5738 5737 5736 5736
5808 5806 5804 5802 5800 5797 5794 5791 5788 5785 5782 5779 5776 5774 5771 5768 5766 5763 5761 5759 5758 5756 5754 5752 5750 5748 5746 5744 5742 5741 5739 5737 5735 5733 5732 5731 5730 5729 5729 5729 5729 5728 5727
5802 5800 5798 5796 5794 5791 5787 5784 5781 5778 5775 5772 5770 5767 5765 5762 5760 5758 5756 5754 5752 5750 5748 5746 5743 5741 5740 5738 5736 5734 5732 5730 5728 5726 5725 5724 5722 5721 5720 5720 5720 5719 5718
5797 5795 5793 5791 5788 5785 5781 5778 5775 5772 5769 5766 5763 5761 5758 5756 5754 5752 5750 5748 5746 5745 5743 5740 5738 5736 5734 5732 5730 5728 5726 5724 5721 5719 5718 5716 5714 5713 5711 5711 5710 5709 5709
5791 5789 5787 5784 5782 5779 5775 5772 5768 5765 5762 5760 5757 5755 5752 5750 5748 5747 5745 5743 5741 5740 5738 5736 5733 5731 5729 5726 5724 5722 5719 5717 5715 5712 5711 5708 5706 5704 5702 5701 5701 5700 5700
5786 5783 5781 5778 5775 5772 5769 5766 5762 5759 5756 5753 5751 5749 5746 5744 5743 5741 5740 5738 5737 5735 5733 5731 5728 5726 5723 5721 5718 5715 5712 5710 5708 5705 5703 5701 5698 5696 5694 5692 5691 5691 5691
5781 5778 5775 5772 5769 5766 5763 5760 5756 5753 5750 5747 5745 5743 5741 5739 5737 5736 5735 5733 5732 5730 5728 5725 5723 5720 5717 5714 5712 5709 5706 5703 5701 5698 5696 5693 5690 5688 5686 5684 5682 5681 5681
5776 5773 5770 5767 5763 5760 5757 5754 5750 5747 5744 5742 5739 5738 5736 5735 5733 5731 5730 5728 5726 5725 5723 5720 5717 5715 5712 5709 5706 5703 5700 5697 5694 5691 5688 5685 5683 5680 5678 5675 5673 5672 5671
5771 5768 5765 5762 5759 5755 5752 5748 5745 5742 5740 5737 5736 5734 5733 5731 5729 5727 5725 5723 5722 5720 5718 5715 5712 5709 5706 5703 5700 5697 5694 5691 5688 5685 5681 5678 5675 5672 5670 5667 5665 5664 5662
5767 5764 5760 5757 5754 5751 5747 5744 5741 5738 5736 5734 5732 5731 5729 5728 5726 5723 5721 5719 5717 5716 5713 5710 5707 5704 5701 5697 5694 5691 5688 5685 5681 5678 5675 5671 5668 5665 5662 5660 5657 5655 5654
5763 5760 5756 5753 5750 5746 5743 5740 5738 5735 5733 5731 5730 5728 5727 5725 5722 5720 5718 5716 5714 5712 5709 5706 5703 5700 5696 5693 5689 5686 5682 5679 5675 5672 5669 5665 5661 5658 5655 5652 5650 5647 5646
5760 5757 5753 5750 5747 5744 5741 5738 5735 5733 5731 5729 5727 5725 5724 5722 5720 5718 5716 5713 5711 5708 5705 5702 5699 5696 5692 5689 5685 5681 5678 5674 5670 5666 5663 5659 5655 5651 5648 5646 5643 5640 5639
5758 5754 5751 5748 5744 5741 5738 5736 5733 5731 5729 5727 5725 5723 5721 5719 5717 5715 5713 5710 5708 5705 5702 5699 5696 5692 5688 5685 5681 5677 5673 5669 5665 5661 5657 5654 5649 5646 5643 5639 5636 5633 5631
5755 5752 5749 5746 5743 5740 5737 5734 5732 5730 5728 5726 5724 5722 5720 5717 5715 5713 5710 5707 5705 5702 5699 5696 5692 5688 5685 5681 5677 5673 5668 5664 5660 5656 5652 5649 5644 5641 5637 5634 5630 5627 5624
5753 5749 5746 5744 5741 5738 5736 5733 5731 5729 5726 5724 5722 5720 5718 5715 5713 5710 5708 5705 5702 5699 5696 5692 5689 5685 5681 5677 5673 5668 5664 5660 5656 5652 5647 5643 5639 5635 5632 5628 5624 5621 5617
5750 5747 5744 5741 5739 5736 5734 5732 5730 5727 5725 5723 5721 5718 5716 5713 5711 5708 5706 5703 5700 5697 5693 5690 5686 5682 5678 5673 5669 5664 5660 5655 5651 5647 5642 5638 5634 5630 5626 5622 5618 5615 5611
5748 5745 5742 5740 5737 5735 5733 5731 5729 5726 5724 5721 5719 5717 5714 5712 5709 5707 5704 5701 5698 5694 5691 5687 5683 5679 5675 5670 5665 5660 5656 5651 5646 5642 5638 5633 5628 5624 5619 5615 5612 5608 5605
5746 5744 5741 5738 5736 5734 5732 5730 5727 5725 5723 5720 5718 5715 5713 5710 5708 5705 5702 5699 5696 5692 5689 5685 5681 5676 5671 5666 5661 5656 5651 5646 5642 5637 5633 5628 5623 5618 5613 5609 5605 5601 5598
5744 5742 5740 5738 5735 5733 5731 5728 5726 5724 5721 5719 5716 5714 5712 5709 5706 5703 5700 5697 5694 5690 5686 5682 5678 5673 5668 5662 5657 5652 5647 5642 5637 5632 5627 5622 5617 5612 5607 5602 5598 5594 5590
5742 5740 5738 5736 5734 5732 5729 5727 5725 5723 5721 5718 5716 5713 5710 5708 5705 5702 5698 5695 5691 5688 5684 5679 5675 5670 5664 5659 5653 5648 5643 5637 5632 5627 5622 5616 5611 5605 5601 5596 5591 5587 5583
5741 5739 5737 5735 5733 5731 5728 5726 5724 5722 5720 5717 5715 5712 5709 5706 5703 5700 5697 5693 5689 5685 5681 5676 5671 5666 5661 5656 5650 5645 5639 5634 5628 5622 5617 5611 5605 5600 5595 5590 5585 5581 5577
5739 5737 5736 5734 5732 5730 5727 5725 5723 5721 5719 5716 5714 5711 5708 5705 5702 5698 5694 5690 5686 5682 5677 5673 5668 5663 5658 5653 5647 5642 5636 5630 5624 5619 5613 5607 5601 5596 5591 5586 5581 5576 5572
5738 5736 5734 5732 5730 5728 5726 5724 5722 5720 5717 5715 5712 5710 5707 5703 5700 5696 5692 5687 5683 5679 5674 5670 5665 5660 5655 5650 5645 5639 5633 5627 5621 5616 5610 5604 5598 5593 5587 5582 5577 5572 5568